Regional Weather Roundup
Issued by NWS

Home | Current Version | Previous Version | Text Only | Print | Product List | Glossary Off
Versions: 1 2 3 4 5 6 7 8 9 10 11 12 13 14 15 16 17 18 19 20 21 22 23 24 25 26 27 28 29 30 31 32 33 34 35 36 37 38 39 40 41 42 43 44 45 46 47 48 49 50

000
ASUS43 KDMX 252107
RWRIA

WEATHER ROUNDUP FOR IOWA
NATIONAL WEATHER SERVICE DES MOINES IA
400 PM CDT MON MAY 25 2015

NOTE: "FAIR" INDICATES FEW OR NO CLOUDS BELOW 12,000 FEET WITH NO
SIGNIFICANT WEATHER AND/OR OBSTRUCTIONS TO VISIBILITY.

* - THESE STATIONS ARE NOT NWS STATIONS...THUS NOT UNDER NWS
QUALITY CONTROL.  THEY ALSO DO NOT REPORT WEATHER SUCH
AS PRECIPITATION OR FOG.

IAZ001>003-012>014-020>022-031>034-043>046-252200-
   NORTHWEST IOWA

CITY           SKY/WX    TMP DP  RH WIND       PRES   REMARKS
CARROLL *      MOSUNNY   79  57  47 SW20      29.80R HX  80
CHEROKEE *     MOSUNNY   77  55  47 SW16      29.76F
DENISON *      MOSUNNY   79  57  47 SW12G18   29.77F HX  80
LE MARS *      MOSUNNY   77  57  50 SW13G21   29.76F
ORANGE CITY *  SUNNY     73  57  56 SW12      29.76F
SHELDON *      MOSUNNY   73 -36   1 SW16G22   29.74F
SIOUX CITY     MOSUNNY   80  54  40 SW17      29.76F HX  80
SPENCER        MOSUNNY   77  58  51 SW20      29.76F
STORM LAKE *   MOSUNNY   77  55  47 SW18      29.78F
$$

IAZ055>058-069>071-079>083-090>094-252200-
   SOUTHWEST IOWA

CITY           SKY/WX    TMP DP  RH WIND       PRES   REMARKS
ATLANTIC *     MOSUNNY   77  63  61 SW16      29.81S
AUDUBON *      MOSUNNY   77  61  57 SW9       29.82S
CLARINDA *     PTSUNNY   79  64  61 S18G24    29.83S HX  81
COUNCIL BLFS * PTSUNNY   77  64  65 S14G21    29.80S
CRESTON *      PTSUNNY   75  66  73 SW22      29.84S
HARLAN  *      PTSUNNY   77  61  57 SW18      29.83S
LAMONI         MOSUNNY   81  65  58 S21       29.86S HX  83
RED OAK *      PTSUNNY   79  64  61 S18G24    29.80F HX  81
SHENANDOAH *   PTSUNNY   79  63  57 S21       29.81S HX  80
$$

IAZ047>049-059>061-072>074-084-252200-
   CENTRAL IOWA

CITY           SKY/WX    TMP DP  RH WIND       PRES   REMARKS
AMES           MOSUNNY   79  60  52 SW22G30   29.81F HX  80
ANKENY *       MOSUNNY   79  63  57 SW17      29.82R HX  80
CHARITON *     PTSUNNY   77  64  65 S24G30    29.86S
DES MOINES     PTSUNNY   78  62  57 S18G25    29.82S HX  80
GRINNELL*      MOSUNNY   77  61  57 S18G25    29.84F
KNOXVILLE *    PTSUNNY   79  64  61 S13G22    29.84F HX  81
MARSHALLTOWN   MOSUNNY   77  61  57 SW20      29.81F
PELLA *        SUNNY     79  66  65 S14G23    29.85F HX  81
PERRY *        PTSUNNY   79  59  50 SW20      29.81S HX  80
$$

IAZ004>006-015-016-023>025-035-036-252200-
   NORTH CENTRAL IOWA

CITY           SKY/WX    TMP DP  RH WIND       PRES   REMARKS
ALGONA *       MOSUNNY   77 -31   1 SW18G26   29.77F
CLARION *      MOSUNNY   77  59  53 SW23G31   29.78F
ESTHERVILLE    MOSUNNY   75  58  55 SW23      29.75F
FORT DODGE *   PTSUNNY   75  57  53 S15G22    29.80F
MASON CITY     MOSUNNY   77  58  51 SW20G29   29.80R
FOREST CITY *  PTSUNNY   73  57  56 SW20G28   29.78S
IOWA FALLS *     N/A     77  61  57 SW23      29.81F
$$

IAZ007>011-017>019-026>030-037>042-050>054-066-252200-
   NORTHEAST IOWA

CITY           SKY/WX    TMP DP  RH WIND       PRES   REMARKS
CEDAR RAPIDS   MOSUNNY   78  62  57 S24G30    29.85F HX  80
CHARLES CITY * MOSUNNY   77  59  53 SW21G31   29.80S
CLINTON *      SUNNY     81  63  54 SW18      29.90F HX  82
DECORAH *      MOSUNNY   77  61  57 S13G28    29.79S
DUBUQUE        PTSUNNY   76  62  62 SW24G30   29.86R
MONTICELLO *   PTSUNNY   77  64  65 SW17G29   29.86S
OELWEIN *      MOSUNNY   77  63  61 SW24      29.83S
WATERLOO       PTSUNNY   76  60  57 SW18G25   29.80F
$$

IAZ064-065-067-068-078-252200-
   EAST CENTRAL IOWA

CITY           SKY/WX    TMP DP  RH WIND       PRES   REMARKS
DAVENPORT      MOSUNNY   79  62  56 SW16G31   29.89F HX  80
IOWA CITY      MOSUNNY   79  60  52 S20G28    29.88F HX  80
MT. PLEASANT * SUNNY     77  61  57 S18G25    29.90S
MUSCATINE *    MOSUNNY   79  63  57 S20G25    29.88F HX  80
QUAD CITIES    SUNNY     80  58  46 SW21G29   29.88F HX  80
$$

IAZ062-063-075>077-085>089-095>099-252200-
   SOUTHEAST IOWA

CITY           SKY/WX    TMP DP  RH WIND       PRES   REMARKS
BURLINGTON     SUNNY     79  64  60 SW16G24   29.91F HX  81
FAIRFIELD *    MOSUNNY   79  63  57 SW20      29.89S HX  80
FORT MADISON * SUNNY     77  63  61 S14G21    29.92F
KEOKUK *       SUNNY     79  64  61 S14G20    29.91S HX  81
OSKALOOSA *    PTSUNNY   77  63  61 SW21      29.87F
CENTERVILLE *  SUNNY     77  77 100 S15G23    29.90F
OTTUMWA        PTSUNNY   77  62  59 SW18G31   29.86F
WASHINGTON *   MOSUNNY   79  63  57 S21       29.89F HX  80
$$

ABBREVIATIONS USED IN REMARKS
   TC - TEMPERATURES IN CELSIUS
  WCI - WIND CHILL INDEX
   HX - HEAT INDEX
  VSB - VISIBILITY
$$




USA.gov is the U.S. government's official web portal to all federal, state and local government web resources and services.